• Join FlightAware (Why Join?)
  • Login
  • US Flag 
03:36AM EST


 

Airport Tracker/Info


-or-


 

Live Flight TrackerFlight Track Log ✈ UAL4257 ✈ 19-Apr-2013 ✈ MMMY / MTY - KIAH

Flight Track Log - Related Links

Times and Time Zones

All times are in EDT time to prevent confusion due to time zone crossing. See the UAL4257 flight status page for this flight to view local times or setup timezone preferences in your user account.

Time Position Orientation Groundspeed Altitude Reporting Facility
EDT Latitude Longitude Course Direction KTS MPH feet Rate Location/Type
12:16PM 26.0439 -99.9267 44° Northeast 339 390 12,400  Level Houston Center
12:17PM 26.3542 -99.4861 44° Northeast  Level Estimated
12:17PM 26.1033 -99.8311 55° Northeast 364 419 13,800  Level Houston Center
12:18PM 26.4284 -99.4054 44° Northeast  Level Estimated
12:18PM 26.1647 -99.7336 55° Northeast 376 433 14,900  Level Houston Center
12:19PM 26.5026 -99.3246 44° Northeast  Level Estimated
12:19PM 26.2294 -99.6303 55° Northeast 391 450 16,000  Level Houston Center
12:20PM 26.5768 -99.2437 44° Northeast  Level Estimated
12:20PM 26.2950 -99.5244 55° Northeast 404 465 17,100  Level Houston Center
12:21PM 26.6509 -99.1626 44° Northeast  Level Estimated
12:21PM 26.3611 -99.4161 56° Northeast 414 476 17,700  Level Houston Center
12:22PM 26.4442 -99.2828 55° Northeast 426 490 19,000 1,113 Climbing Houston Center
12:23PM 26.5325 -99.1894 43° Northeast 439 505 20,000 1,016 Climbing Houston Center
12:24PM 26.6258 -99.0986 41° Northeast 443 510 21,100 1,008 Climbing Houston Center
12:25PM 26.7219 -99.0061 41° Northeast 449 517 22,100 1,008 Climbing Houston Center
12:26PM 26.8206 -98.9111 41° Northeast 462 532 23,200 1,210 Climbing Houston Center
12:27PM 26.9392 -98.7953 41° Northeast 472 543 24,600 1,258 Climbing Houston Center
12:28PM 27.0369 -98.6992 41° Northeast 472 543 25,800 1,065 Climbing Houston Center
12:30PM 27.1358 -98.6014 41° Northeast 476 548 26,800 1,016 Climbing Houston Center
12:31PM 27.2353 -98.5044 41° Northeast 478 550 27,900 1,065 Climbing Houston Center
12:32PM 27.3336 -98.4067 41° Northeast 476 548 29,000 1,200 Climbing Houston Center
12:33PM 27.4514 -98.2914 41° Northeast 472 543 30,400 1,248 Climbing Houston Center
12:34PM 27.5492 -98.1944 41° Northeast 471 542 31,600 1,113 Climbing Houston Center
12:35PM 27.6469 -98.0975 41° Northeast 471 542 32,700 677 Climbing Houston Center
12:36PM 27.7464 -97.9967 42° Northeast 479 551 33,000 145 Climbing Houston Center
12:37PM 27.8550 -97.8919 40° Northeast 505 581 33,000  Level Houston Center
12:38PM 27.9847 -97.7606 42° Northeast 520 598 33,000  Level Houston Center
12:39PM 28.0931 -97.6547 41° Northeast 522 601 33,000  Level Houston Center
12:40PM 28.2008 -97.5439 42° Northeast 523 602 33,000  Level Houston Center
12:41PM 28.3106 -97.4356 41° Northeast 523 602 33,000 -146 Level Houston Center
12:42PM 28.4200 -97.3244 42° Northeast 527 606 32,700 -919 Descending Houston Center
12:43PM 28.5494 -97.1931 42° Northeast 524 603 31,100 -1,452 Descending Houston Center
12:44PM 28.6592 -97.0831 41° Northeast 525 604 29,700 -1,403 Descending Houston Center
12:45PM 28.7675 -96.9725 42° Northeast 525 604 28,200 -1,440 Descending Houston Center
12:46PM 28.8756 -96.8617 42° Northeast 525 604 26,700 -2,016 Descending Houston Center
12:47PM 28.9817 -96.7503 43° Northeast 523 602 24,000 -2,758 Descending Houston Center
12:48PM 29.0981 -96.6306 42° Northeast 477 549 21,000 -2,468 Descending Houston Center
12:49PM 29.1908 -96.5356 42° Northeast 458 527 18,900 -1,790 Descending Houston Center
12:50PM 29.2825 -96.4414 42° Northeast 449 517 17,300 -1,870 Descending Houston Center
12:50PM 29.3142 -96.4081 43° Northeast 437 503 16,500 -2,129 Descending Houston Center
12:51PM 29.3669 -96.3528 42° Northeast 423 487 15,100 -1,706 Descending Houston Center
12:52PM 29.4500 -96.2667 42° Northeast 408 470 13,400 -1,452 Descending Houston Center
12:53PM 29.5411 -96.1700 43° Northeast 374 430 12,100 -1,065 Descending Houston Center
12:55PM 29.5985 -96.0364 60° Northeast  Level FlightAware Approximate
12:55PM 29.6511 -95.9553 60° Northeast 359 413 10,100  Level Houston Center
12:56PM 29.6994 -95.8608 59° Northeast 344 396 10,000 -49 Descending Houston Center
12:57PM 29.7478 -95.7639 60° Northeast 347 399 10,000 -484 Level Houston Center
12:58PM 29.7906 -95.6794 60° Northeast 289 333 9,000 -1,220 Descending Houston Center
12:59PM 29.8314 -95.5978 60° Northeast 264 304 7,500 -1,426 Descending Houston Center
01:00PM 29.8669 -95.5236 61° Northeast 264 304 6,100 -738 Descending Houston Center
01:02PM 29.8942 -95.4553 65° Northeast 228 262 6,000 -49 Descending Houston Center
01:03PM 29.8950 -95.3708 89° East 250 288 6,000  Level Houston Center
01:04PM 29.8961 -95.2911 89° East 248 285 6,000  Level Houston Center
01:04PM 29.8953 -95.2142 91° East 253 291 6,000 -462 Level Houston Center
01:06PM 29.8964 -95.1369 89° East 239 275 5,100 -1,131 Descending Houston Center
01:07PM 29.9261 -95.0947 51° Northeast 172 198 3,700 -1,184 Descending Houston Center
01:07PM 29.9322 -95.0933 11° North 206 237 3,600 -689 Descending Houston Center
01:08PM 29.9681 -95.1161 331° Northwest 188 216 3,000 -581 Descending Houston Center
01:08PM 29.9719 -95.1197 321° Northwest 193 222 3,000 -677 Level Houston Center
01:09PM 29.9917 -95.1664 296° West 173 199 2,300 -774 Descending Houston Center
01:09PM 29.9944 -95.1697 314° West 183 211 2,200 -393 Descending Houston Center
01:10PM 29.9928 -95.2239 268° West 180 207 1,900 -484 Descending Houston Center
01:10PM 29.9944 -95.2372 278° West 179 206 1,700 -774 Descending Houston Center
01:11PM 29.9931 -95.2722 267° West 124 143 1,100 -677 Descending Houston Center
01:11PM 29.9933 -95.2819 272° West 161 185 1,000 -608 Descending Houston Center
01:12PM 29.9939 -95.3192 271° West 134 154 300 -677 Descending Houston Center